This is the latest recevied weather packets stored in our database for station/object EA1CZ-10. If no packets are shown the sender has not sent any weather packets the latest 10 day(s).
| Time | Temp. | Humidity | Pressure | Rain* | Wind** | Luminosity | Snow |
|---|---|---|---|---|---|---|---|
| 1778245489 | 7.78° C | 68% | 1023.4 hPa | - | - | - | - |
| 1778243689 | 7.22° C | 69% | 1023.3 hPa | - | - | - | - |
| 1778241889 | 7.22° C | 68% | 1023.5 hPa | - | - | - | - |
| 1778240089 | 8.33° C | 67% | 1023.9 hPa | - | - | - | - |
| 1778238289 | 5.56° C | 68% | 1024.1 hPa | - | - | - | - |
| 1778236489 | 9.44° C | 68% | 1024 hPa | - | - | - | - |
| 1778234689 | 7.22° C | 68% | 1023.9 hPa | - | - | - | - |
| 1778232889 | 7.22° C | 68% | 1023.7 hPa | - | - | - | - |
| 1778231089 | 8.33° C | 68% | 1023.5 hPa | - | - | - | - |
| 1778229288 | 6.67° C | 68% | 1023.8 hPa | - | - | - | - |
| 1778227488 | 5.56° C | 68% | 1023.8 hPa | - | - | - | - |
| 1778225688 | 7.78° C | 68% | 1023.5 hPa | - | - | - | - |
| 1778223888 | 7.78° C | 68% | 1023.2 hPa | - | - | - | - |
| 1778222088 | 9.44° C | 67% | 1022.8 hPa | - | - | - | - |
| 1778220288 | 9.44° C | 67% | 1022.8 hPa | - | - | - | - |
| 1778218488 | 10° C | 67% | 1022.6 hPa | - | - | - | - |
| 1778216688 | 9.44° C | 67% | 1022.5 hPa | - | - | - | - |
| 1778214888 | 9.44° C | 67% | 1022.8 hPa | - | - | - | - |
| 1778213088 | 9.44° C | 67% | 1022.8 hPa | - | - | - | - |
| 1778211287 | 9.44° C | 67% | 1022.9 hPa | - | - | - | - |
| 1778209487 | 8.89° C | 68% | 1023 hPa | - | - | - | - |
| 1778207687 | 10° C | 67% | 1023.4 hPa | - | - | - | - |
| 1778205887 | 6.11° C | 68% | 1024 hPa | - | - | - | - |
| 1778204087 | 7.22° C | 68% | 1024.1 hPa | - | - | - | - |
| 1778202287 | 7.22° C | 68% | 1024.5 hPa | - | - | - | - |
* Rain since midnight (hover to see other rain measurements)
** Current wind speed in m/s (hover to see current wind gust speed)